This is the latest recevied weather packets stored in our database for station/object S51UL-6. If no packets are shown the sender has not sent any weather packets the latest 10 day(s).
| Time | Temp. | Humidity | Pressure | Rain* | Wind** | Luminosity | Snow |
|---|---|---|---|---|---|---|---|
| 1787586822 | 27.22° C | 48% | 1018.6 hPa | 0 mm | - | - | - |
| 1787586222 | 27.22° C | 47% | 1018.7 hPa | 0 mm | - | - | - |
| 1787585922 | 27.78° C | 47% | 1018.7 hPa | 0 mm | - | - | - |
| 1787585323 | 27.78° C | 46% | 1018.8 hPa | 0 mm | - | - | - |
| 1787585022 | 27.78° C | 45% | 1018.8 hPa | 0 mm | - | - | - |
| 1787584722 | 28.33° C | 45% | 1018.9 hPa | 0 mm | - | - | - |
| 1787584424 | 28.33° C | 44% | 1018.9 hPa | 0 mm | - | - | - |
| 1787583822 | 28.89° C | 43% | 1019.1 hPa | 0 mm | - | - | - |
| 1787583524 | 29.44° C | 43% | 1019 hPa | 0 mm | - | - | - |
| 1787583223 | 30° C | 43% | 1019.1 hPa | 0 mm | - | - | - |
| 1787582923 | 30.56° C | 42% | 1018.9 hPa | 0 mm | - | - | - |
| 1787582623 | 30.56° C | 42% | 1019 hPa | 0 mm | - | - | - |
| 1787582023 | 31.11° C | 42% | 1019 hPa | 0 mm | - | - | - |
| 1787581723 | 31.11° C | 42% | 1019.1 hPa | 0 mm | - | - | - |
| 1787581423 | 31.11° C | 42% | 1019.1 hPa | 0 mm | - | - | - |
| 1787581123 | 31.11° C | 42% | 1019.2 hPa | 0 mm | - | - | - |
| 1787580823 | 30.56° C | 41% | 1019.2 hPa | 0 mm | - | - | - |
| 1787580523 | 31.11° C | 40% | 1019.3 hPa | 0 mm | - | - | - |
| 1787579924 | 31.67° C | 41% | 1019.4 hPa | 0 mm | - | - | - |
| 1787579624 | 31.67° C | 41% | 1019.4 hPa | 0 mm | - | - | - |
| 1787579323 | 31.67° C | 40% | 1019.3 hPa | 0 mm | - | - | - |
| 1787579023 | 31.67° C | 40% | 1019.5 hPa | 0 mm | - | - | - |
| 1787578723 | 31.67° C | 40% | 1019.4 hPa | 0 mm | - | - | - |
| 1787577824 | 31.67° C | 41% | 1019.6 hPa | 0 mm | - | - | - |
| 1787577523 | 31.67° C | 41% | 1019.6 hPa | 0 mm | - | - | - |
* Rain latest hour (hover to see other rain measurements)
** Current wind speed in m/s (hover to see current wind gust speed)